Location: Home
(42.5358°N, 72.7383°W)
Time: 11:54:55
(UTC-05:00)

Explorer 7 - Pass Details

Date: 02 December 2021
Orbit: 483 x 674 km, 50.3° (Epoch: 21 January)

Event Time Altitude Azimuth Distance (km) Brightness Sun altitude
Exits shadow 04:53:39 - 196° (SSW) 2,363 10.0 -23.1°
Reaches altitude 10° 04:54:59 10° 188° (S) 1,918 9.6 -22.8°
Maximum altitude 04:58:26 23° 136° (SE) 1,233 9.2 -22.2°
Drops below altitude 10° 05:01:45 10° 83° (E) 1,829 10.5 -21.6°
Sets 05:04:15 0° 69° (ENE) 2,690 11.3 -21.2°
